Total_Precipitation_Accumulation
2.65 2.64 2.55 2.61 2.59 2.57 2.45 2.29 2.14 2.07 1.91 1.77 1.66 1.71 1.71 1.64 1.61 1.66 1.64 1.68 1.76 1.79 1.83 1.92 2.01 2.07 2.18 2.22 2.28 2.30 2.39 2.43 2.37 2.10 1.96 1.95 1.93 1.89 1.91 1.77 1.68 1.59 1.46
2.39 2.46 2.55 2.56 2.48 2.35 2.17 2.05 1.93 1.82 1.66 1.58 1.54 1.60 1.58 1.47 1.45 1.42 1.36 1.40 1.50 1.60 1.68 1.74 1.81 1.83 1.91 1.89 1.98 2.04 2.07 2.14 2.15 2.17 2.16 2.10 2.06 2.00 1.90 1.73 1.49 1.31 1.27
2.20 2.17 2.33 2.39 2.26 2.10 1.97 1.90 1.79 1.65 1.58 1.57 1.52 1.49 1.47 1.38 1.32 1.29 1.28 1.26 1.24 1.33 1.44 1.49 1.56 1.58 1.56 1.53 1.59 1.60 1.71 1.81 2.00 2.04 2.02 2.08 2.06 2.06 2.12 1.82 1.57 1.52 1.17
2.16 2.31 2.35 2.27 2.12 2.02 1.83 1.65 1.55 1.46 1.49 1.55 1.49 1.40 1.31 1.25 1.19 1.22 1.26 1.25 1.20 1.21 1.23 1.26 1.28 1.23 1.20 1.24 1.26 1.32 1.46 1.73 1.90 1.93 1.81 1.83 1.90 1.90 2.06 1.93 1.78 1.64 1.40
2.09 2.09 2.05 1.98 1.91 1.89 1.82 1.67 1.50 1.37 1.33 1.42 1.37 1.33 1.24 1.13 1.05 1.09 1.15 1.15 1.15 1.12 1.10 1.09 1.05 1.03 1.05 1.04 0.99 1.10 1.31 1.57 1.70 1.76 1.75 1.70 1.69 1.75 1.80 1.71 1.70 1.69 1.56
1.79 1.79 1.73 1.72 1.76 1.72 1.70 1.58 1.48 1.37 1.31 1.33 1.31 1.22 1.08 0.92 0.92 0.94 0.91 0.95 1.09 1.14 1.10 1.01 0.94 0.89 0.88 0.89 0.90 0.98 1.12 1.25 1.37 1.50 1.54 1.55 1.56 1.61 1.72 1.72 1.70 1.73 1.68
1.63 1.58 1.59 1.59 1.56 1.53 1.40 1.35 1.39 1.42 1.34 1.28 1.19 1.08 0.98 0.90 0.85 0.81 0.85 0.92 1.01 1.10 1.12 1.12 0.96 0.81 0.89 0.93 0.95 1.00 1.03 1.08 1.17 1.33 1.43 1.41 1.49 1.63 1.82 1.79 1.78 1.76 1.67
1.57 1.50 1.45 1.45 1.40 1.37 1.35 1.33 1.34 1.34 1.30 1.25 1.14 1.04 0.96 0.86 0.84 0.82 0.84 0.85 0.97 1.01 1.02 1.04 1.06 1.00 0.95 1.00 0.98 1.01 1.03 1.07 1.13 1.21 1.36 1.39 1.37 1.50 1.73 1.75 1.76 1.74 1.64
1.35 1.32 1.25 1.27 1.32 1.33 1.30 1.36 1.35 1.26 1.21 1.14 1.08 1.04 0.99 0.88 0.81 0.77 0.81 0.89 0.97 0.93 0.87 0.85 0.85 0.86 0.86 0.96 1.03 1.12 1.12 1.09 0.96 1.03 1.09 1.18 1.30 1.39 1.47 1.55 1.69 1.84 1.75
1.23 1.23 1.14 1.13 1.19 1.26 1.28 1.31 1.23 1.17 1.14 1.02 0.97 1.00 0.99 0.94 0.81 0.71 0.75 0.78 0.84 0.83 0.80 0.77 0.76 0.72 0.70 0.70 0.81 1.01 1.13 1.08 1.01 1.02 1.14 1.30 1.39 1.44 1.43 1.49 1.63 1.76 1.74
1.06 1.13 1.12 1.10 1.11 1.12 1.14 1.19 1.15 1.10 1.09 1.07 1.05 1.05 1.04 0.98 0.83 0.71 0.70 0.68 0.71 0.74 0.77 0.77 0.75 0.65 0.56 0.58 0.70 0.87 0.95 0.93 1.03 1.25 1.46 1.52 1.53 1.48 1.38 1.37 1.52 1.64 1.69
1.04 1.16 1.15 1.13 1.02 1.00 1.13 1.18 1.12 1.09 1.04 1.07 1.07 1.06 1.06 1.02 0.85 0.73 0.67 0.65 0.66 0.69 0.74 0.73 0.69 0.63 0.55 0.58 0.64 0.76 0.81 0.93 1.17 1.42 1.58 1.55 1.36 1.22 1.21 1.22 1.29 1.44 1.54
1.12 1.17 1.18 1.10 1.08 1.08 1.11 1.12 1.05 1.02 0.94 0.93 0.94 0.96 0.96 0.89 0.81 0.73 0.67 0.63 0.63 0.65 0.66 0.65 0.63 0.64 0.66 0.74 0.79 0.81 0.89 1.09 1.30 1.41 1.42 1.32 1.21 1.16 1.19 1.23 1.22 1.36 1.42
1.17 1.15 1.14 1.13 1.11 1.06 1.01 0.97 0.94 0.92 0.86 0.81 0.82 0.85 0.80 0.78 0.71 0.62 0.59 0.58 0.57 0.61 0.64 0.70 0.77 0.83 0.85 0.88 0.93 1.02 1.09 1.17 1.19 1.26 1.25 1.19 1.13 1.16 1.20 1.17 1.21 1.32 1.44
1.06 1.00 0.98 1.01 0.99 0.94 0.83 0.77 0.75 0.70 0.62 0.60 0.60 0.62 0.60 0.61 0.61 0.56 0.53 0.54 0.52 0.56 0.63 0.77 0.95 1.02 1.04 1.02 1.00 1.04 1.08 1.09 1.11 1.10 1.09 1.09 1.12 1.12 1.11 1.08 1.14 1.19 1.33
0.92 0.86 0.83 0.85 0.84 0.78 0.73 0.67 0.62 0.51 0.47 0.44 0.42 0.43 0.44 0.49 0.50 0.44 0.44 0.47 0.48 0.57 0.66 0.89 1.04 1.08 1.10 1.01 0.95 0.93 0.92 0.93 0.91 0.92 0.97 1.02 1.05 1.03 1.03 1.03 1.06 1.13 1.23
0.83 0.82 0.72 0.68 0.72 0.70 0.66 0.68 0.71 0.57 0.46 0.43 0.41 0.44 0.45 0.45 0.43 0.43 0.41 0.46 0.50 0.55 0.63 0.78 0.91 1.01 1.04 0.95 0.88 0.88 0.88 0.86 0.86 0.88 0.93 0.96 0.98 0.97 0.99 1.02 1.04 1.10 1.14
0.69 0.66 0.63 0.62 0.62 0.59 0.59 0.59 0.62 0.70 0.70 0.62 0.51 0.47 0.47 0.49 0.48 0.46 0.45 0.52 0.58 0.58 0.66 0.72 0.78 0.87 0.94 0.91 0.87 0.88 0.87 0.86 0.87 0.88 0.90 0.94 0.99 1.00 0.96 0.96 0.99 1.00 1.05
0.56 0.53 0.52 0.49 0.50 0.51 0.53 0.52 0.54 0.59 0.65 0.68 0.66 0.58 0.53 0.56 0.56 0.55 0.53 0.53 0.60 0.65 0.69 0.71 0.71 0.74 0.78 0.83 0.87 0.88 0.86 0.84 0.83 0.83 0.84 0.91 0.95 0.95 0.95 0.91 0.90 0.91 0.97
0.52 0.46 0.43 0.40 0.41 0.43 0.45 0.48 0.53 0.54 0.55 0.61 0.64 0.58 0.56 0.62 0.65 0.63 0.57 0.55 0.61 0.65 0.67 0.72 0.73 0.72 0.73 0.72 0.74 0.77 0.80 0.78 0.74 0.76 0.82 0.89 0.93 0.94 0.90 0.84 0.86 0.92 0.96
0.41 0.39 0.36 0.34 0.37 0.39 0.40 0.44 0.50 0.49 0.53 0.56 0.53 0.51 0.57 0.62 0.67 0.63 0.60 0.59 0.65 0.70 0.74 0.74 0.71 0.71 0.67 0.63 0.66 0.69 0.70 0.70 0.70 0.71 0.76 0.83 0.84 0.83 0.80 0.76 0.74 0.76 0.78
0.36 0.36 0.30 0.29 0.31 0.35 0.38 0.40 0.42 0.44 0.47 0.47 0.47 0.46 0.54 0.56 0.61 0.63 0.63 0.64 0.67 0.71 0.75 0.74 0.71 0.68 0.65 0.62 0.62 0.64 0.65 0.67 0.71 0.73 0.75 0.75 0.73 0.71 0.70 0.67 0.65 0.64 0.69
0.32 0.34 0.32 0.30 0.31 0.34 0.37 0.41 0.40 0.37 0.40 0.42 0.44 0.43 0.44 0.51 0.55 0.62 0.64 0.65 0.69 0.72 0.72 0.70 0.66 0.63 0.62 0.58 0.57 0.57 0.60 0.61 0.60 0.62 0.65 0.67 0.66 0.65 0.64 0.62 0.62 0.64 0.68
0.31 0.34 0.32 0.29 0.31 0.35 0.37 0.36 0.33 0.31 0.37 0.42 0.45 0.46 0.46 0.49 0.52 0.59 0.66 0.69 0.69 0.70 0.67 0.63 0.57 0.53 0.55 0.54 0.52 0.48 0.50 0.50 0.48 0.48 0.52 0.55 0.56 0.59 0.59 0.60 0.62 0.62 0.65
0.28 0.28 0.27 0.26 0.28 0.34 0.34 0.31 0.30 0.30 0.32 0.39 0.44 0.47 0.47 0.47 0.53 0.60 0.66 0.71 0.72 0.69 0.61 0.58 0.51 0.47 0.48 0.48 0.46 0.42 0.45 0.46 0.44 0.43 0.48 0.53 0.50 0.52 0.57 0.60 0.63 0.60 0.60
0.26 0.28 0.27 0.29 0.30 0.28 0.28 0.29 0.30 0.31 0.33 0.35 0.39 0.43 0.45 0.51 0.56 0.57 0.58 0.62 0.65 0.64 0.57 0.50 0.44 0.42 0.44 0.45 0.43 0.43 0.41 0.39 0.39 0.44 0.47 0.50 0.51 0.51 0.53 0.56 0.58 0.58 0.59